Regional Weather Roundup
Issued by NWS Goodland, KS

Home | Current Version | Previous Version | Text Only | Print | Product List | Glossary On
Versions: 1 2 3 4 5 6 7 8 9 10 11 12 13 14 15 16 17 18 19 20 21 22 23 24 25 26 27 28 29 30 31 32 33 34 35 36 37 38 39 40 41 42 43 44 45 46 47 48 49 50
000
ASUS43 KGLD 180859
RWRGLD

GOODLAND FORECAST AREA HOURLY WEATHER ROUNDUP
NATIONAL WEATHER SERVICE GOODLAND KS
200 AM MST SUN FEB 18 2018

...OFFICIAL OBSERVATIONS...

CITY           SKY/WX    TMP DP  RH WIND       PRES   REMARKS
GOODLAND KS    PTCLDY    39  16  39 S24G32    29.73F
HILL CITY KS   CLOUDY    42  16  34 S9G22     29.87F
IMPERIAL NEB   CLEAR     37  18  46 S12       29.71F
MCCOOK NEB     CLEAR     39  17  41 VRB5      29.77F
AKRON CO       CLEAR     36  16  44 S12       29.67F
BURLINGTON CO  MOCLDY    37  17  44 S20       29.73F
LIMON CO       MOCLDY    38  12  34 S6        29.75F
$$

...UNOFFICIAL OBSERVATIONS...

CITY           SKY/WX    TMP DP  RH WIND       PRES   REMARKS
LENORA KS        N/A     40  32  73 S17         N/A
NORTON KS      CLEAR     39   9  28 S14G23    29.82
SHARON SPRINGS   N/A     40  20  44 S23G30      N/A
TRENTON NEB      N/A     37  32  82 SW9         N/A
KIT CARSON CO    N/A     31  14  49 CALM        N/A
$$




USA.gov is the U.S. government's official web portal to all federal, state and local government web resources and services.